Probability
0 0 0 0 0 1 2 2 3 3 1 0 0 0 1 0 0 0 0 0 0 0 0 0 0 0 0 1 1 1 0 0 0 0 0 0 0 0 0 0 0 0 0
0 0 0 0 0 0 1 1 2 3 2 1 1 1 1 0 0 0 0 0 0 0 0 0 0 0 0 0 0 0 0 0 0 0 0 0 0 0 0 0 0 0 0
0 0 0 0 0 0 0 1 1 2 2 3 2 1 1 0 0 0 0 0 0 0 0 0 0 0 0 0 0 0 0 0 0 0 0 0 0 0 0 0 0 0 0
0 0 0 0 0 0 0 0 0 1 2 3 2 1 1 1 0 0 0 0 0 0 0 0 0 0 0 0 0 0 0 0 0 0 0 0 0 0 0 0 0 0 0
0 0 0 0 0 0 0 0 0 0 1 1 2 2 1 1 1 1 1 0 1 1 1 0 0 0 0 0 0 0 0 0 0 0 0 0 0 0 0 0 0 0 0
0 0 0 0 0 0 0 0 0 0 0 1 2 3 2 1 2 2 1 0 1 2 1 0 0 0 0 0 0 0 0 0 0 0 0 0 0 0 0 0 0 0 0
1 1 1 0 0 0 0 0 0 0 0 0 1 3 3 2 2 2 1 0 1 1 1 0 0 0 0 0 0 0 0 0 0 0 0 0 0 0 0 0 0 0 0
1 2 1 0 0 0 0 0 0 0 0 0 1 2 3 3 2 1 1 1 0 0 0 0 0 0 0 0 0 0 0 0 0 0 0 0 0 0 0 0 0 0 0
1 1 1 0 0 0 0 0 0 0 0 0 0 1 1 2 1 1 1 1 1 0 0 0 0 0 0 0 0 0 0 0 0 0 0 0 0 0 0 0 0 0 0
0 1 2 1 0 0 0 0 0 0 0 0 0 0 0 1 1 0 1 1 1 0 0 0 0 0 0 0 0 0 0 0 0 0 0 0 0 0 0 0 0 0 0
0 1 2 2 1 0 0 0 0 0 0 0 0 0 0 0 1 0 0 0 0 0 0 0 0 0 0 0 0 0 0 0 0 0 0 0 0 0 0 0 0 0 0
0 0 2 2 1 0 0 0 0 0 0 0 0 0 0 0 0 0 0 0 0 0 0 0 0 0 0 0 0 0 0 0 0 0 0 0 0 0 0 0 0 0 0
0 0 1 2 1 0 0 0 0 0 0 0 0 0 0 0 0 0 0 0 0 0 0 0 0 0 0 0 0 0 0 0 0 0 0 0 0 0 0 0 0 0 0
0 0 1 1 0 0 0 0 0 0 0 0 0 0 0 1 1 1 1 1 0 0 0 0 0 0 0 0 0 0 0 0 0 0 0 0 0 0 0 1 1 0 0
0 0 1 1 1 0 0 0 0 0 0 0 0 0 0 1 2 3 2 1 0 0 0 0 0 0 0 0 0 0 0 0 0 0 0 0 0 0 0 1 2 1 0
1 1 1 2 1 1 1 1 1 0 0 0 0 0 0 1 2 3 3 1 0 0 0 0 0 0 0 0 0 0 0 0 0 0 0 0 0 0 0 1 2 1 0
2 2 2 2 3 3 3 2 2 1 0 0 0 0 0 1 2 3 2 1 0 0 0 0 0 0 0 0 0 0 0 0 0 0 0 0 0 0 0 1 1 1 0
3 3 3 2 3 4 4 3 2 1 0 0 0 0 0 1 2 3 2 1 0 0 0 0 0 0 0 0 0 0 0 0 0 0 0 0 0 0 0 0 0 0 0
2 3 3 2 2 3 3 3 2 0 0 0 0 0 0 1 2 2 1 0 0 0 0 0 0 0 0 0 0 0 0 0 0 0 0 0 0 0 0 0 0 0 0
1 1 3 2 2 2 4 4 3 1 0 0 0 0 0 0 1 1 0 0 0 0 0 0 0 0 0 0 0 0 0 0 0 0 1 0 0 0 0 0 0 0 0
0 1 2 2 2 3 5 5 4 2 1 0 0 0 0 0 0 0 0 0 0 0 0 0 0 0 0 0 0 0 0 0 0 0 0 0 0 0 0 0 0 0 0
1 1 2 2 1 3 4 4 4 2 1 0 0 0 0 0 0 0 0 0 0 0 0 0 0 0 0 0 0 0 0 0 0 0 0 0 0 0 0 0 0 0 0
1 2 2 1 0 1 2 2 2 1 0 0 0 0 0 0 0 0 0 0 0 0 0 0 0 0 0 0 0 0 0 0 0 0 0 0 0 0 0 0 0 0 0
1 2 2 1 0 0 0 1 1 0 0 0 0 0 0 0 0 0 0 0 0 0 0 0 0 0 0 0 0 0 0 0 0 0 0 0 0 0 0 0 0 0 0
1 2 2 1 0 0 0 1 1 0 0 0 0 0 0 0 0 0 0 0 0 0 0 0 0 0 0 0 0 0 0 0 0 0 0 0 0 0 0 0 0 0 0
0 1 1 0 0 0 0 1 1 1 0 0 0 0 0 0 0 0 0 0 0 0 0 0 0 0 0 0 0 0 0 0 0 0 0 0 0 0 0 0 0 0 0
Wind_Speed
5 8 8 8 9 9 8 8 7 7 8 8 8 8 8 8 8 8 8 9 9 9 10 10 11 11 11 11 12 11 11 10 10 9 9 9 9 10 10 9 8 6 9
6 8 9 8 9 9 9 8 8 8 8 8 8 8 8 7 7 7 8 8 9 9 10 10 10 11 11 11 10 10 10 9 8 7 7 8 9 9 9 9 9 6 9
7 8 8 8 9 9 9 9 8 8 8 8 7 7 7 7 7 7 8 8 8 9 9 9 10 10 10 10 10 9 9 8 8 6 5 3 5 9 9 9 9 9 8
7 7 7 8 8 9 9 8 8 7 7 7 7 7 7 6 6 7 7 7 8 8 8 8 9 9 9 9 9 8 8 7 7 7 3 3 4 8 9 8 9 9 8
6 6 7 8 7 8 9 8 8 7 6 7 7 6 6 6 6 6 7 7 7 7 7 8 8 8 8 8 7 7 7 7 7 5 3 4 4 7 8 8 8 8 8
5 6 7 8 7 7 7 7 7 6 6 6 6 6 5 5 6 6 6 6 6 7 7 7 7 7 7 6 6 6 6 7 6 3 4 4 4 7 7 7 7 7 7
4 6 7 7 7 6 6 6 6 6 6 5 5 5 5 5 6 6 6 6 6 6 6 6 6 6 6 5 5 6 7 8 4 3 4 4 4 6 6 7 7 7 7
4 5 6 6 6 5 5 5 5 5 5 5 5 4 4 5 5 5 5 6 6 5 5 5 5 5 5 4 5 5 6 6 4 4 3 3 5 5 5 6 6 6 6
4 5 4 4 5 5 4 4 4 4 4 4 4 4 4 4 4 5 5 5 5 5 4 4 4 4 4 3 3 4 5 6 4 2 3 3 4 4 4 5 5 5 5
3 4 4 4 4 4 4 4 4 4 4 4 4 4 4 4 4 4 4 4 4 4 4 3 3 3 3 2 2 3 4 4 2 2 2 3 5 4 4 4 4 4 4
2 3 3 3 3 4 4 4 4 4 4 3 3 4 3 2 3 3 4 4 4 4 3 3 3 2 2 1 0 2 2 1 1 2 2 3 4 4 3 3 3 3 4
3 3 3 3 3 3 3 3 2 2 2 2 2 3 2 2 2 3 5 5 4 3 3 2 1 1 1 1 1 1 1 1 1 1 2 3 3 3 3 3 3 3 3
3 3 3 3 3 3 2 2 2 1 2 2 2 2 1 2 2 2 2 2 2 3 2 1 1 1 0 0 0 0 1 1 1 1 2 2 3 3 3 3 3 3 3
3 3 3 3 3 3 3 2 2 2 1 1 2 2 1 1 1 2 2 2 2 1 2 2 1 1 0 0 0 1 1 0 0 1 1 1 2 3 4 3 3 4 3
3 3 3 3 3 3 3 2 2 2 2 2 2 2 2 2 1 2 1 1 1 1 1 1 1 1 1 1 1 1 1 1 0 1 1 0 2 3 4 4 4 4 4
3 3 3 2 2 3 2 2 2 2 2 2 2 2 2 2 2 2 2 1 1 1 1 1 1 2 2 1 1 1 1 1 0 0 1 1 1 3 4 4 4 4 5
3 3 3 3 3 3 3 3 2 2 2 2 2 2 2 2 2 2 2 2 1 1 1 1 1 1 1 1 1 1 1 1 1 1 1 1 1 1 3 4 5 5 5
3 3 3 2 3 3 3 3 2 2 2 2 2 2 2 2 2 2 2 2 2 2 1 1 1 1 1 1 1 1 1 1 2 2 1 1 1 1 2 4 5 5 5
3 3 3 3 3 3 3 2 2 2 2 2 2 2 2 2 2 2 2 1 2 2 2 1 1 1 1 1 1 1 1 2 2 2 2 2 1 1 1 2 4 5 5
3 3 3 3 3 3 2 2 1 1 1 2 2 2 2 2 2 1 2 2 2 2 1 1 1 1 1 1 1 2 2 2 2 2 2 1 1 1 1 1 1 2 5
2 3 4 3 3 3 2 2 2 2 2 2 2 3 3 3 3 2 1 2 2 2 2 2 2 2 1 1 0 1 2 3 3 2 2 1 2 2 2 2 1 1 2
3 2 3 3 3 3 3 2 1 2 2 2 2 2 3 3 3 2 2 2 2 2 2 2 2 1 1 1 1 0 1 2 2 3 2 2 2 1 2 2 2 2 2
2 2 2 3 3 3 3 2 1 1 1 0 1 2 2 3 3 2 3 2 3 3 3 3 3 3 2 2 2 2 1 2 2 2 2 2 2 1 2 2 2 2 2
2 2 2 2 3 3 3 3 3 2 2 2 2 2 2 3 2 3 2 2 2 2 3 3 3 2 3 2 1 1 1 1 1 2 2 2 2 2 3 3 3 3 3
2 2 1 2 2 2 3 3 3 2 1 1 1 1 1 2 3 3 2 2 2 2 3 3 3 3 3 3 2 1 1 1 1 1 3 3 2 2 3 3 2 2 2
2 1 1 1 1 1 1 2 3 3 2 2 2 2 1 1 2 3 2 2 2 2 3 3 3 4 3 3 2 2 2 1 2 2 3 3 3 3 3 2 2 2 2
Wind_Direction
113 126 139 138 141 143 138 134 132 127 128 122 116 110 104 101 98 92 87 83 80 80 80 77 73 69 66 62 60 58 55 52 52 52 52 55 56 56 54 49 49 56 62
117 129 139 133 134 139 138 134 129 127 128 124 119 114 108 105 102 96 90 87 85 84 83 80 77 72 67 63 59 57 52 46 42 42 44 55 59 57 58 54 55 63 63
114 126 138 129 132 132 130 127 127 128 128 126 122 117 112 109 105 100 95 91 89 87 85 82 79 75 70 65 59 54 48 39 27 20 25 51 62 59 59 57 57 58 58
116 123 130 124 131 135 134 132 132 133 135 134 130 125 120 115 112 104 98 94 90 88 87 84 81 77 73 68 60 52 42 27 10 7 20 49 60 61 57 55 55 54 54
113 117 118 121 126 133 138 140 140 139 141 141 137 134 130 124 118 110 102 99 94 90 88 88 84 80 74 67 61 49 33 14 359 0 28 49 53 56 53 53 53 50 50
113 113 119 125 125 128 136 146 149 149 147 142 139 136 134 129 122 116 109 102 97 93 91 89 85 82 75 67 59 44 23 6 356 16 33 49 52 52 50 49 52 49 46
114 114 126 126 129 130 135 141 150 154 148 142 141 139 133 127 123 119 113 106 100 95 93 90 88 85 78 67 55 37 15 357 358 26 44 52 52 52 48 45 47 48 47
107 109 124 130 127 129 132 134 135 143 146 145 146 144 138 128 120 119 118 111 104 99 97 95 92 89 81 71 54 31 7 354 3 24 45 57 54 51 49 46 43 42 40
108 110 122 135 134 126 119 122 127 127 131 139 142 139 128 123 125 122 117 113 108 103 97 92 92 94 87 77 54 20 357 348 349 3 47 56 50 46 42 40 35 31 30
111 122 132 141 142 141 133 122 124 125 127 133 135 126 119 126 130 128 114 108 109 105 100 96 94 95 92 83 55 4 340 341 345 13 43 55 42 34 35 34 26 18 19
138 140 148 151 149 147 150 150 142 136 136 138 138 145 152 150 139 137 125 122 118 112 108 106 100 101 101 91 357 321 329 335 6 32 44 51 30 15 18 18 13 7 6
173 165 157 155 153 153 157 148 154 160 154 156 145 158 172 146 137 132 125 129 127 127 126 122 124 168 184 196 253 278 295 335 12 63 58 51 20 5 359 356 354 351 348
182 177 163 158 156 155 145 153 158 147 144 157 148 169 155 130 133 132 127 130 138 143 140 142 183 240 220 89 223 266 311 353 36 73 67 45 3 347 339 335 331 335 334
184 186 169 164 162 161 146 151 152 144 151 158 161 169 153 138 140 139 143 152 154 159 161 173 191 199 221 296 276 265 303 337 43 88 90 35 343 323 317 322 320 316 330
191 186 178 166 165 158 151 159 160 159 163 168 168 175 161 150 153 143 144 148 160 160 162 180 179 182 211 230 258 264 272 290 31 115 129 56 329 314 305 308 313 314 315
193 186 177 174 168 152 150 161 167 166 169 172 172 178 178 163 163 158 144 155 162 160 172 181 190 191 210 201 233 249 263 268 264 209 159 188 301 315 312 313 309 302 307
187 177 178 179 172 165 166 174 170 173 174 175 176 177 180 166 166 162 152 163 169 164 168 171 186 162 200 213 228 234 245 264 256 242 195 182 207 294 306 313 312 308 309
183 174 180 186 176 177 171 176 169 179 178 174 168 168 168 165 174 171 166 173 167 158 165 166 168 166 218 239 245 244 231 229 244 232 216 197 195 223 294 308 311 308 304
179 174 173 179 179 182 177 173 173 173 167 170 165 169 170 173 181 177 167 176 168 169 181 184 183 180 214 236 252 254 237 219 227 233 219 207 196 197 212 285 299 304 303
169 172 172 178 181 174 167 153 150 159 170 177 175 173 170 174 178 185 174 179 173 173 186 180 184 193 198 209 259 277 258 230 227 225 225 209 194 217 232 248 253 289 293
157 174 175 180 184 170 165 169 178 195 189 189 189 181 178 177 179 188 182 183 179 187 197 185 173 181 188 139 75 300 280 236 227 221 218 203 220 221 226 232 234 232 267
161 169 172 181 185 182 179 181 184 167 188 190 181 177 177 179 185 192 189 195 193 190 193 192 178 167 181 164 159 201 290 289 251 232 205 210 227 223 237 240 226 226 237
151 166 166 169 177 176 170 153 117 96 73 181 189 186 192 187 188 193 199 197 201 194 199 203 191 183 190 204 186 169 179 237 288 250 226 216 225 234 242 243 233 227 240
165 160 169 167 171 176 169 167 172 188 203 215 195 189 185 180 187 193 196 201 207 205 200 206 200 195 180 199 219 227 221 189 190 287 274 243 237 240 242 247 232 227 230
138 143 164 153 160 168 169 173 180 197 209 182 151 167 191 184 187 193 191 195 209 214 208 203 204 202 195 194 195 209 240 268 223 215 269 283 279 254 246 242 221 218 217
104 106 106 132 137 133 154 175 186 197 189 175 181 190 203 205 200 194 197 203 209 214 211 212 211 204 203 201 200 194 191 197 216 216 245 274 279 271 259 248 216 210 218